• In Österreich
  • Länderverzeichnis
  • Für 7 Tage
  • Wassertemperatur
  • Satellitenkarten
  • Wetterkarte
  • News
  • Widgets
  • user-avatar
    Anmelden

    Stündliche Wetter Trujillo

    Heute, 21 Mai, Montag

    Zeit Temperatur Niederschläge Wind Luftdruck Luftfeuchtigkeit
    00:00 +15°C° 0,6 mm 1 m/S 616 mmHg 92%
    01:00 +15°C° 0,1 mm 1 m/S 616 mmHg 92%
    02:00 +15°C° 0,1 mm 1 m/S 616 mmHg 92%
    03:00 +15°C° 0,1 mm 1 m/S 616 mmHg 92%
    04:00 +15°C° 0 mm 1 m/S 616 mmHg 91%
    05:00 +15°C° 0 mm 1 m/S 616 mmHg 90%
    06:00 +14°C° 0 mm 0 m/S 616 mmHg 90%
    07:00 +19°C° 0 mm 1 m/S 617 mmHg 77%
    08:00 +22°C° 0 mm 1 m/S 618 mmHg 64%
    09:00 +24°C° 0 mm 1 m/S 620 mmHg 52%
    10:00 +25°C° 0,1 mm 1 m/S 620 mmHg 47%
    11:00 +27°C° 0,1 mm 2 m/S 620 mmHg 43%
    12:00 +28°C° 0,1 mm 2 m/S 620 mmHg 38%
    13:00 +27°C° 0,5 mm 2 m/S 619 mmHg 39%
    14:00 +27°C° 0,5 mm 2 m/S 619 mmHg 41%
    15:00 +27°C° 0,5 mm 2 m/S 618 mmHg 42%
    16:00 +25°C° 0,6 mm 2 m/S 618 mmHg 49%
    17:00 +23°C° 0,6 mm 2 m/S 617 mmHg 56%
    18:00 +22°C° 0,6 mm 1 m/S 616 mmHg 64%
    19:00 +20°C° 1 mm 1 m/S 616 mmHg 71%
    20:00 +19°C° 1 mm 1 m/S 617 mmHg 79%
    21:00 +15°C° 1 mm 0 m/S 617 mmHg 86%
    22:00 +15°C° 0,4 mm 0 m/S 616 mmHg 88%
    23:00 +16°C° 0,4 mm 1 m/S 616 mmHg 89%

    Morgen, 22 Mai, Dienstag

    Zeit Temperatur Niederschläge Wind Luftdruck Luftfeuchtigkeit
    00:00 +15°C° 0,4 mm 1 m/S 616 mmHg 91%
    01:00 +15°C° 0,1 mm 1 m/S 616 mmHg 91%
    02:00 +15°C° 0,1 mm 1 m/S 615 mmHg 91%
    03:00 +14°C° 0,1 mm 1 m/S 615 mmHg 92%
    04:00 +14°C° 0 mm 1 m/S 615 mmHg 89%
    05:00 +14°C° 0 mm 1 m/S 615 mmHg 87%
    06:00 +15°C° 0 mm 1 m/S 616 mmHg 85%
    07:00 +18°C° 0 mm 1 m/S 617 mmHg 73%
    08:00 +21°C° 0 mm 1 m/S 618 mmHg 61%
    09:00 +24°C° 0 mm 1 m/S 619 mmHg 49%
    10:00 +25°C° 0 mm 1 m/S 619 mmHg 44%
    11:00 +26°C° 0 mm 2 m/S 620 mmHg 40%
    12:00 +27°C° 0 mm 2 m/S 620 mmHg 35%
    13:00 +27°C° 0,2 mm 2 m/S 619 mmHg 37%
    14:00 +27°C° 0,2 mm 2 m/S 618 mmHg 38%
    15:00 +27°C° 0,2 mm 2 m/S 618 mmHg 39%
    16:00 +25°C° 0,9 mm 2 m/S 617 mmHg 47%
    17:00 +23°C° 0,9 mm 2 m/S 617 mmHg 55%
    18:00 +21°C° 0,9 mm 1 m/S 616 mmHg 62%
    19:00 +20°C° 1,1 mm 1 m/S 617 mmHg 68%
    20:00 +19°C° 1,1 mm 1 m/S 617 mmHg 74%
    21:00 +16°C° 1,1 mm 0 m/S 617 mmHg 80%
    22:00 +15°C° 0,3 mm 0 m/S 617 mmHg 82%
    23:00 +15°C° 0,3 mm 0 m/S 617 mmHg 83%

    übermorgen, 23 Mai, Mittwoch

    Zeit Temperatur Niederschläge Wind Luftdruck Luftfeuchtigkeit
    00:00 +15°C° 0,3 mm 0 m/S 617 mmHg 84%
    01:00 +14°C° 0 mm 0 m/S 616 mmHg 84%
    02:00 +14°C° 0 mm 0 m/S 616 mmHg 84%
    03:00 +14°C° 0 mm 0 m/S 615 mmHg 84%
    04:00 +14°C° 0 mm 0 m/S 615 mmHg 82%
    05:00 +14°C° 0 mm 0 m/S 616 mmHg 80%
    06:00 +14°C° 0 mm 0 m/S 616 mmHg 77%
    07:00 +18°C° 0 mm 1 m/S 617 mmHg 69%
    08:00 +21°C° 0 mm 1 m/S 618 mmHg 60%
    09:00 +23°C° 0 mm 1 m/S 620 mmHg 52%
    10:00 +24°C° 0 mm 1 m/S 620 mmHg 49%
    11:00 +25°C° 0 mm 2 m/S 620 mmHg 45%
    12:00 +27°C° 0 mm 2 m/S 620 mmHg 42%
    13:00 +26°C° 0,4 mm 2 m/S 619 mmHg 43%
    14:00 +26°C° 0,4 mm 2 m/S 619 mmHg 45%
    15:00 +26°C° 0,4 mm 2 m/S 618 mmHg 47%
    16:00 +24°C° 0,5 mm 1 m/S 618 mmHg 54%
    17:00 +22°C° 0,5 mm 1 m/S 617 mmHg 61%
    18:00 +21°C° 0,5 mm 1 m/S 617 mmHg 68%
    19:00 +20°C° 0,6 mm 1 m/S 617 mmHg 73%
    20:00 +16°C° 0,6 mm 0 m/S 617 mmHg 78%
    21:00 +15°C° 0,6 mm 0 m/S 617 mmHg 84%
    22:00 +15°C° 0,3 mm 0 m/S 617 mmHg 85%
    23:00 +15°C° 0,3 mm 0 m/S 617 mmHg 86%

    24 Mai, Donnerstag

    Zeit Temperatur Niederschläge Wind Luftdruck Luftfeuchtigkeit
    00:00 +14°C° 0,3 mm 0 m/S 617 mmHg 87%
    01:00 +14°C° 0 mm 0 m/S 616 mmHg 87%
    02:00 +14°C° 0 mm 0 m/S 616 mmHg 88%
    03:00 +14°C° 0 mm 0 m/S 616 mmHg 88%
    04:00 +14°C° 0 mm 0 m/S 616 mmHg 86%
    05:00 +14°C° 0 mm 0 m/S 616 mmHg 84%
    06:00 +15°C° 0 mm 1 m/S 616 mmHg 83%
    07:00 +19°C° 0 mm 1 m/S 618 mmHg 73%
    08:00 +21°C° 0 mm 1 m/S 619 mmHg 63%
    09:00 +24°C° 0 mm 1 m/S 621 mmHg 53%
    10:00 +25°C° 0 mm 1 m/S 621 mmHg 50%
    11:00 +26°C° 0 mm 2 m/S 620 mmHg 46%
    12:00 +27°C° 0 mm 2 m/S 620 mmHg 43%
    13:00 +26°C° 0,5 mm 2 m/S 619 mmHg 46%
    14:00 +26°C° 0,5 mm 2 m/S 619 mmHg 49%
    15:00 +25°C° 0,5 mm 2 m/S 618 mmHg 52%
    16:00 +24°C° 0,8 mm 2 m/S 618 mmHg 59%
    17:00 +22°C° 0,8 mm 1 m/S 618 mmHg 66%
    18:00 +21°C° 0,8 mm 1 m/S 617 mmHg 73%
    19:00 +20°C° 0,9 mm 1 m/S 617 mmHg 77%
    20:00 +17°C° 0,9 mm 0 m/S 618 mmHg 80%
    21:00 +16°C° 0,9 mm 0 m/S 618 mmHg 84%
    22:00 +16°C° 0,6 mm 0 m/S 618 mmHg 85%
    23:00 +15°C° 0,6 mm 0 m/S 617 mmHg 85%

    25 Mai, Freitag

    Zeit Temperatur Niederschläge Wind Luftdruck Luftfeuchtigkeit
    00:00 +15°C° 0,6 mm 0 m/S 617 mmHg 86%
    01:00 +15°C° 0,2 mm 0 m/S 617 mmHg 87%
    02:00 +14°C° 0,2 mm 0 m/S 616 mmHg 87%
    03:00 +15°C° 0,2 mm 1 m/S 616 mmHg 88%
    04:00 +15°C° 0 mm 1 m/S 616 mmHg 87%
    05:00 +15°C° 0 mm 1 m/S 616 mmHg 87%
    06:00 +15°C° 0 mm 1 m/S 617 mmHg 86%
    07:00 +19°C° 0 mm 1 m/S 618 mmHg 77%
    08:00 +21°C° 0 mm 1 m/S 619 mmHg 68%
    09:00 +24°C° 0 mm 1 m/S 620 mmHg 58%
    10:00 +24°C° 0,3 mm 1 m/S 620 mmHg 57%
    11:00 +25°C° 0,3 mm 1 m/S 619 mmHg 55%
    12:00 +25°C° 0,3 mm 2 m/S 619 mmHg 53%
    13:00 +25°C° 1,1 mm 2 m/S 618 mmHg 57%
    14:00 +24°C° 1,1 mm 1 m/S 618 mmHg 61%
    15:00 +23°C° 1,1 mm 1 m/S 617 mmHg 65%
    16:00 +22°C° 1,8 mm 1 m/S 617 mmHg 71%
    17:00 +21°C° 1,8 mm 1 m/S 616 mmHg 77%
    18:00 +17°C° 1,8 mm 0 m/S 616 mmHg 83%
    19:00 +17°C° 2,2 mm 0 m/S 616 mmHg 85%
    20:00 +16°C° 2,2 mm 0 m/S 617 mmHg 87%
    21:00 +16°C° 2,2 mm 0 m/S 617 mmHg 89%
    22:00 +16°C° 2,9 mm 0 m/S 617 mmHg 89%
    23:00 +16°C° 2,9 mm 0 m/S 616 mmHg 89%

    26 Mai, Samstag

    Zeit Temperatur Niederschläge Wind Luftdruck Luftfeuchtigkeit
    00:00 +16°C° 2,9 mm 0 m/S 616 mmHg 90%
    01:00 +15°C° 2,5 mm 0 m/S 616 mmHg 90%
    02:00 +15°C° 2,5 mm 0 m/S 616 mmHg 89%
    03:00 +15°C° 2,5 mm 0 m/S 615 mmHg 89%
    04:00 +15°C° 0,8 mm 0 m/S 616 mmHg 89%
    05:00 +15°C° 0,8 mm 0 m/S 616 mmHg 89%
    06:00 +15°C° 0,8 mm 0 m/S 616 mmHg 89%
    07:00 +16°C° 0,3 mm 0 m/S 617 mmHg 84%
    08:00 +17°C° 0,3 mm 0 m/S 617 mmHg 78%
    09:00 +19°C° 0,3 mm 0 m/S 618 mmHg 73%
    10:00 +22°C° 0,2 mm 1 m/S 618 mmHg 69%
    11:00 +23°C° 0,2 mm 1 m/S 618 mmHg 65%
    12:00 +24°C° 0,2 mm 1 m/S 618 mmHg 62%
    13:00 +23°C° 0,7 mm 1 m/S 617 mmHg 64%
    14:00 +23°C° 0,7 mm 2 m/S 617 mmHg 66%
    15:00 +21°C° 0,7 mm 2 m/S 616 mmHg 69%
    16:00 +21°C° 0,8 mm 1 m/S 616 mmHg 74%
    17:00 +20°C° 0,8 mm 1 m/S 616 mmHg 80%
    18:00 +19°C° 0,8 mm 1 m/S 615 mmHg 86%
    19:00 +18°C° 0,5 mm 1 m/S 616 mmHg 88%
    20:00 +18°C° 0,5 mm 1 m/S 616 mmHg 89%
    21:00 +16°C° 0,5 mm 1 m/S 616 mmHg 91%
    22:00 +16°C° 0,3 mm 1 m/S 616 mmHg 92%
    23:00 +16°C° 0,3 mm 1 m/S 616 mmHg 92%
    Mehr zeigen